Station EROA2 - Eldred Rock, AK Image indicating link to RSS feed of recent meteorological observations for station EROA2


Conditions at EROA2 as of
(7:24 am AKDT)
1524 GMT on 06/16/2024:
     

Click on the graph icon in the table below to see a time series plot of the last five days of that observation.

5-day plot - Wind Direction Wind Direction (WDIR):SSW ( 210 deg true )
5-day plot - Wind Speed Wind Speed (WSPD): 5.1 kts
5-day plot - Wind Gust Wind Gust (GST): 5.1 kts
5-day plot - Atmospheric Pressure Atmospheric Pressure (PRES):30.11 in
5-day plot - Air Temperature Air Temperature (ATMP): 54.3 °F
5-day plot - Dew Point Dew Point (DEWP): 48.2 °F
5-day plot - Wind Speed at 10 Meters Wind Speed at 10 meters (WSPD10M): 5.8 kts
5-day plot - Wind Speed at 20 Meters Wind Speed at 20 meters (WSPD20M): 5.8 kts
5-day plot -  Wind Speed, Wind Gust and Atmospheric Pressure Combined plot of Wind Speed, Gust, and Air Pressure
Previous observations
TIME
(AKDT)
5-day plot - Wind Direction
WDIR
 
5-day plot - Wind Speed
WSPD
kts
5-day plot - Wind Gust
GST
kts
5-day plot - Wave Height
WVHT
ft
5-day plot - Dominant Wave Period
DPD
sec
5-day plot - Average Wave Period
APD
sec
5-day plot - Mean Wave Direction
MWD
 
5-day plot - Atmospheric Pressure
PRES
in
5-day plot - Pressure Tendency
PTDY
in
5-day plot - Air Temperature
ATMP
°F
5-day plot - Water Temperature
WTMP
°F
5-day plot - Dew Point
DEWP
°F
5-day plot - Salinity
SAL
psu
5-day plot - Visibility
VIS
nmi
5-day plot - Tide (above MLLW)
TIDE
ft
2024-06-16 06:24 am E 1.0 6.0----30.10- 55.0- 44.1---
2024-06-16 05:24 am NE 5.1 7.0----30.09- 54.7- 42.4---
2024-06-16 04:24 amNNE 5.1 11.1----30.09- 54.7- 44.8---
2024-06-16 03:24 amNNE 12.0 15.9----30.08- 55.6- 42.4---
2024-06-16 02:24 amNNE 14.0 15.9----30.07- 55.8- 43.9---
2024-06-16 01:24 amNNE 11.1 15.0----30.06- 56.3- 44.2---
2024-06-16 12:24 amNNE 15.0 19.0----30.06- 57.6- 44.4---
2024-06-15 11:24 pm N 15.0 18.1----30.03- 58.8- 44.1---
2024-06-15 10:24 pm N 15.9 17.1----30.03- 62.6-----
2024-06-15 09:24 pm N 13.0 15.9----30.01- 64.0- 43.5---
2024-06-15 08:24 pmNNE 11.1 13.0----30.01- 67.1- 42.4---
2024-06-15 07:24 pm N 8.9 11.1----30.01- 65.1- 46.8---
2024-06-15 06:24 pmNNE 8.9 9.9----30.00- 68.5- 43.2---
2024-06-15 05:24 pmNNE 6.0 8.0----30.01- 70.0- 42.3---
2024-06-15 04:24 pmNNE 8.0 9.9----30.01- 67.5- 45.1---
2024-06-15 03:24 pmNNE 9.9 12.0----30.01- 65.3- 45.9---
2024-06-15 02:24 pm N 11.1 14.0----30.02- 66.6- 45.1---
2024-06-15 01:24 pm N 14.0 18.1----30.03- 63.1- 46.4---
2024-06-15 12:24 pmNNE 15.0 18.1----30.03- 62.6- 45.9---
2024-06-15 11:24 amNNE 17.1 21.0----30.04- 59.9- 46.0---
2024-06-15 10:24 am N 13.0 15.0----30.05- 56.8- 46.2---
2024-06-15 09:24 am N 13.0 14.0----30.06- 55.0- 44.8---
2024-06-15 08:24 amNNE 2.9 8.9----30.07- 53.6- 44.8---